Weather in Kolezhma

Russia / Republic of Karelia     64°14′14″N   35°52′19″E
temp.,
°C
wind,
m/s
gust,
m/s
humid.,
%
clouds,
%
prec.,
mm/h
press.,
hPa
HPBL,
m
1 march, mon
mon100:000sw5119281 0.0 1009362
03:00−1wsw5139489 0.0 1008535
06:00+2wsw514100100 0.1 1005571
09:00+2w514100100 0.1 1003561
12:00+2w514100100 0.1 1000600
15:00+1w511100100 0.4 999497
18:00+1w41293100 0.0 997662
21:00+1w41091100 0.1 996534
2 march, tue
tue200:000wnw61484100 0.1 996677
03:00−1w6148377 0.1 996891
06:00−1nw81682100 0.4 9961185
09:00−4nw81582100 0.4 999870
12:00−4nw7148267 0.0 1002877
15:00−4nw7138081 0.0 10051028
18:00−5wnw6148256 0.0 1007794
21:00−6wnw5148238 0.0 1007524
3 march, wed
wed300:00−6wnw412900 0.0 1006410
03:00−6w411920 0.0 1007310
06:00−6wnw4119338 0.0 1005342
09:00−6wnw4109452 0.0 1005391
12:00−5wnw4794100 0.1 1004448
15:00−4wnw359298 0.1 1003510
18:00−6sw129699 0.1 100025
21:00−6se239798 0.1 99868
4 march, thu
thu400:00−6ese3697100 0.1 994187
03:00−9ene4895100 0.1 993246
06:00−12nne2394100 0.0 99448
09:00−12nnw259596 0.0 995106
12:00−8nnw359399 0.0 996267
15:00−6nw489497 0.2 998584
18:00−7nnw4995100 0.4 998520
21:00−8nw3796100 0.7 999263
5 march, fri
fri500:00−10nw2697100 0.1 1000146
03:00−12nne5895100 0.6 1002322
06:00−16n4894100 0.1 1004295
09:00−17nnw269487 0.1 1006145
12:00−14nnw359452 0.0 1008419
15:00−12nw369276 0.1 1009539
18:00−15wnw239792 0.0 100938
21:00−15wsw239463 0.0 100951